Flag for Dominican Republic Weather past 2 weeks in Puerto Plata, Dominican Republic

Now
81 °F

Passing clouds.


Feels Like: 86 °F
Forecast: 80 / 87 °F
Wind: No wind

Location: Puerto Plata International

Current Time: Jul 30, 2015 at 12:07:18 AM

Latest Report: Jul 29, 2015 at 11:00 PM


Visibility: N/A

Pressure: 30.07 "Hg

Humidity: 84%

Dew point: 75 °F

Location of Puerto PlataLocation

Historic Weather in Puerto Plata — Graph

°F

Puerto Plata temperature yesterday

Maximum temperature yesterday: 91 °F (at 12:00 PM)
Minimum temperature yesterday: 75 °F (at 7:00 AM)
Average temperature yesterday: 85 °F

Past Weeks' High & Low Weather Summary

 TemperatureHumidityPressure
High97 °F (Jul 27, 2:00 PM)100% (Jul 25, 5:00 AM)30.09 "Hg (Jul 25, 5:00 AM)
Low73 °F (Jul 26, 7:00 AM)42% (Jul 27, 2:00 PM)29.92 "Hg (Jul 21, 4:00 PM)
Average85 °F72%30.01 "Hg
* Reported Jul 14 11:00 PM — Jul 29 11:00 PM, Puerto Plata, Weather by CustomWeather, © 2015

Note: Actual official high and low records may vary slightly from our data, if they occured in-between our weather recording intervals... More about our weather records

Advertising

Puerto Plata weather history for previous 24 hours

 ConditionsComfort  
Time TempWeatherWind HumidityBarometerVisibility
11:00 PM
Wed, Jul 29
81 °FPassing clouds.No wind84%30.07 "HgN/A
8:00 PM82 °FPassing clouds.17 mph79%30.01 "HgN/A
7:00 PM86 °FPassing clouds.17 mph75%29.98 "HgN/A
6:00 PM88 °FPassing clouds.15 mph66%29.98 "HgN/A
5:00 PM90 °FPassing clouds.17 mph63%29.95 "HgN/A
4:00 PM90 °FPassing clouds.17 mph67%29.98 "HgN/A
3:00 PM90 °FPassing clouds.17 mph63%29.98 "HgN/A
2:00 PM91 °FPassing clouds.17 mph59%30.01 "HgN/A
1:00 PM91 °FPassing clouds.23 mph56%30.01 "HgN/A
12:00 PM91 °FPassing clouds.17 mph52%30.04 "HgN/A
11:00 AM88 °FPassing clouds.17 mph66%30.04 "HgN/A
10:00 AM88 °FPassing clouds.12 mph66%30.04 "HgN/A
9:00 AM86 °FPassing clouds.8 mph66%30.04 "HgN/A
8:00 AM77 °FSunny.No wind89%30.01 "Hg10 mi
7:00 AM75 °FSunny.No wind94%30.01 "Hg10 mi
5:00 AM77 °FClear.3 mph89%30.01 "Hg10 mi
2:00 AM79 °FClear.8 mph84%30.01 "Hg10 mi
Weather by CustomWeather, © 2015

See weather overviewHow to use our weather pages